• In Netherlands
  • List of Countries
  • For 7 days
  • Water Temperature
  • Satellite Maps
  • Weather Map
  • Weather Widgets
  • user-avatar
    Login

    Hourly Weather Mazari Sharif

    Today, 26 May, Friday

    Time Temperature Precipitation Wind Pressure Humidity
    00:00 +26°C° 0 mm 2 mps 655 mmHg 19%
    01:00 +25°C° 0 mm 2 mps 655 mmHg 19%
    02:00 +24°C° 0 mm 2 mps 655 mmHg 19%
    03:00 +24°C° 0 mm 2 mps 655 mmHg 20%
    04:00 +24°C° 0 mm 3 mps 655 mmHg 19%
    05:00 +25°C° 0 mm 3 mps 656 mmHg 18%
    06:00 +27°C° 0 mm 3 mps 657 mmHg 17%
    07:00 +28°C° 0 mm 3 mps 658 mmHg 16%
    08:00 +30°C° 0 mm 3 mps 658 mmHg 15%
    09:00 +31°C° 0 mm 3 mps 658 mmHg 13%
    10:00 +33°C° 0 mm 3 mps 659 mmHg 12%
    11:00 +34°C° 0 mm 3 mps 658 mmHg 11%
    12:00 +34°C° 0 mm 3 mps 658 mmHg 11%
    13:00 +35°C° 0 mm 4 mps 658 mmHg 10%
    14:00 +35°C° 0 mm 4 mps 658 mmHg 10%
    15:00 +35°C° 0 mm 4 mps 658 mmHg 10%
    16:00 +35°C° 0 mm 4 mps 658 mmHg 10%
    17:00 +33°C° 0 mm 3 mps 657 mmHg 11%
    18:00 +30°C° 0 mm 3 mps 657 mmHg 13%
    19:00 +29°C° 0 mm 2 mps 656 mmHg 14%
    20:00 +28°C° 0 mm 2 mps 656 mmHg 15%
    21:00 +27°C° 0 mm 1 mps 656 mmHg 15%
    22:00 +26°C° 0 mm 1 mps 656 mmHg 16%
    23:00 +25°C° 0 mm 1 mps 656 mmHg 17%

    Tomorrow, 27 May, Saturday

    Time Temperature Precipitation Wind Pressure Humidity
    00:00 +25°C° 0 mm 1 mps 656 mmHg 17%
    01:00 +24°C° 0 mm 2 mps 655 mmHg 18%
    02:00 +24°C° 0 mm 2 mps 655 mmHg 18%
    03:00 +23°C° 0 mm 2 mps 655 mmHg 19%
    04:00 +23°C° 0 mm 2 mps 655 mmHg 19%
    05:00 +25°C° 0 mm 1 mps 656 mmHg 17%
    06:00 +26°C° 0 mm 1 mps 657 mmHg 15%
    07:00 +28°C° 0 mm 1 mps 657 mmHg 13%
    08:00 +30°C° 0 mm 1 mps 658 mmHg 12%
    09:00 +31°C° 0 mm 1 mps 658 mmHg 11%
    10:00 +32°C° 0 mm 1 mps 658 mmHg 11%
    11:00 +34°C° 0 mm 2 mps 658 mmHg 11%
    12:00 +34°C° 0 mm 2 mps 657 mmHg 10%
    13:00 +35°C° 0 mm 3 mps 657 mmHg 10%
    14:00 +35°C° 0 mm 3 mps 657 mmHg 10%
    15:00 +35°C° 0 mm 3 mps 657 mmHg 10%
    16:00 +35°C° 0 mm 3 mps 656 mmHg 10%
    17:00 +33°C° 0 mm 3 mps 656 mmHg 12%
    18:00 +31°C° 0 mm 2 mps 656 mmHg 14%
    19:00 +29°C° 0 mm 2 mps 655 mmHg 16%
    20:00 +28°C° 0 mm 2 mps 655 mmHg 17%
    21:00 +27°C° 0 mm 1 mps 655 mmHg 18%
    22:00 +26°C° 0 mm 1 mps 655 mmHg 19%
    23:00 +26°C° 0 mm 1 mps 655 mmHg 19%

    Day after tomorrow, 28 May, Sunday

    Time Temperature Precipitation Wind Pressure Humidity
    00:00 +25°C° 0 mm 1 mps 654 mmHg 19%
    01:00 +25°C° 0 mm 1 mps 654 mmHg 20%
    02:00 +24°C° 0 mm 1 mps 654 mmHg 20%
    03:00 +23°C° 0 mm 1 mps 654 mmHg 21%
    04:00 +23°C° 0 mm 1 mps 654 mmHg 22%
    05:00 +25°C° 0 mm 1 mps 654 mmHg 19%
    06:00 +27°C° 0 mm 1 mps 655 mmHg 16%
    07:00 +29°C° 0 mm 1 mps 656 mmHg 13%
    08:00 +30°C° 0 mm 1 mps 656 mmHg 12%
    09:00 +31°C° 0 mm 1 mps 657 mmHg 11%
    10:00 +33°C° 0 mm 1 mps 657 mmHg 10%
    11:00 +34°C° 0 mm 2 mps 657 mmHg 9%
    12:00 +35°C° 0 mm 2 mps 657 mmHg 9%
    13:00 +36°C° 0 mm 3 mps 657 mmHg 8%
    14:00 +36°C° 0 mm 3 mps 656 mmHg 8%
    15:00 +36°C° 0 mm 3 mps 656 mmHg 8%
    16:00 +36°C° 0 mm 4 mps 656 mmHg 8%
    17:00 +34°C° 0 mm 3 mps 656 mmHg 9%
    18:00 +31°C° 0 mm 3 mps 655 mmHg 11%
    19:00 +29°C° 0 mm 2 mps 655 mmHg 12%
    20:00 +29°C° 0 mm 2 mps 655 mmHg 12%
    21:00 +28°C° 0 mm 2 mps 655 mmHg 13%
    22:00 +27°C° 0 mm 2 mps 655 mmHg 14%
    23:00 +26°C° 0 mm 2 mps 655 mmHg 14%

    29 May, Monday

    Time Temperature Precipitation Wind Pressure Humidity
    00:00 +26°C° 0 mm 2 mps 655 mmHg 15%
    01:00 +25°C° 0 mm 2 mps 654 mmHg 16%
    02:00 +24°C° 0 mm 2 mps 654 mmHg 16%
    03:00 +24°C° 0 mm 2 mps 654 mmHg 17%
    04:00 +23°C° 0 mm 2 mps 654 mmHg 18%
    05:00 +25°C° 0 mm 2 mps 655 mmHg 16%
    06:00 +27°C° 0 mm 2 mps 656 mmHg 14%
    07:00 +29°C° 0 mm 2 mps 656 mmHg 12%
    08:00 +31°C° 0 mm 2 mps 657 mmHg 11%
    09:00 +32°C° 0 mm 2 mps 657 mmHg 10%
    10:00 +34°C° 0 mm 2 mps 657 mmHg 9%
    11:00 +35°C° 0 mm 2 mps 657 mmHg 8%
    12:00 +36°C° 0 mm 3 mps 657 mmHg 8%
    13:00 +37°C° 0 mm 3 mps 656 mmHg 8%
    14:00 +37°C° 0 mm 3 mps 656 mmHg 8%
    15:00 +37°C° 0 mm 4 mps 656 mmHg 8%
    16:00 +37°C° 0 mm 4 mps 656 mmHg 8%
    17:00 +35°C° 0 mm 3 mps 656 mmHg 9%
    18:00 +33°C° 0 mm 3 mps 655 mmHg 10%
    19:00 +30°C° 0 mm 2 mps 655 mmHg 11%
    20:00 +29°C° 0 mm 2 mps 655 mmHg 11%
    21:00 +28°C° 0 mm 2 mps 655 mmHg 12%
    22:00 +27°C° 0 mm 2 mps 655 mmHg 13%
    23:00 +27°C° 0 mm 3 mps 655 mmHg 14%

    30 May, Tuesday

    Time Temperature Precipitation Wind Pressure Humidity
    00:00 +27°C° 0 mm 4 mps 656 mmHg 14%
    01:00 +26°C° 0 mm 4 mps 656 mmHg 15%
    02:00 +25°C° 0 mm 5 mps 656 mmHg 18%
    03:00 +24°C° 0 mm 6 mps 656 mmHg 21%
    04:00 +23°C° 0 mm 7 mps 656 mmHg 24%
    05:00 +23°C° 0 mm 7 mps 657 mmHg 26%
    06:00 +23°C° 0 mm 8 mps 658 mmHg 28%
    07:00 +24°C° 0 mm 8 mps 658 mmHg 30%
    08:00 +26°C° 0 mm 8 mps 659 mmHg 29%
    09:00 +26°C° 0 mm 8 mps 659 mmHg 27%
    10:00 +27°C° 0 mm 8 mps 659 mmHg 26%
    11:00 +28°C° 0 mm 8 mps 659 mmHg 25%
    12:00 +28°C° 0 mm 8 mps 659 mmHg 23%
    13:00 +29°C° 0 mm 8 mps 658 mmHg 22%
    14:00 +28°C° 0 mm 8 mps 658 mmHg 20%
    15:00 +28°C° 0 mm 7 mps 657 mmHg 19%
    16:00 +28°C° 0 mm 7 mps 657 mmHg 18%
    17:00 +26°C° 0 mm 6 mps 657 mmHg 17%
    18:00 +24°C° 0 mm 6 mps 657 mmHg 17%
    19:00 +23°C° 0 mm 5 mps 656 mmHg 16%
    20:00 +22°C° 0 mm 4 mps 656 mmHg 16%
    21:00 +21°C° 0 mm 4 mps 656 mmHg 16%
    22:00 +20°C° 0 mm 4 mps 656 mmHg 16%
    23:00 +19°C° 0 mm 3 mps 656 mmHg 17%

    31 May, Wednesday

    Time Temperature Precipitation Wind Pressure Humidity
    00:00 +19°C° 0 mm 3 mps 655 mmHg 17%
    01:00 +18°C° 0 mm 3 mps 655 mmHg 18%
    02:00 +17°C° 0 mm 3 mps 655 mmHg 19%
    03:00 +17°C° 0 mm 2 mps 654 mmHg 19%
    04:00 +17°C° 0 mm 2 mps 654 mmHg 20%
    05:00 +18°C° 0 mm 2 mps 655 mmHg 19%
    06:00 +19°C° 0 mm 2 mps 655 mmHg 18%
    07:00 +21°C° 0 mm 2 mps 656 mmHg 16%
    08:00 +23°C° 0 mm 2 mps 656 mmHg 16%
    09:00 +24°C° 0 mm 2 mps 656 mmHg 15%
    10:00 +25°C° 0 mm 3 mps 656 mmHg 14%
    11:00 +26°C° 0 mm 3 mps 656 mmHg 13%
    12:00 +27°C° 0 mm 3 mps 656 mmHg 12%
    13:00 +28°C° 0 mm 3 mps 656 mmHg 11%
    14:00 +28°C° 0 mm 3 mps 655 mmHg 11%
    15:00 +28°C° 0 mm 3 mps 655 mmHg 11%
    16:00 +28°C° 0 mm 3 mps 655 mmHg 11%
    17:00 +26°C° 0 mm 3 mps 655 mmHg 12%
    18:00 +25°C° 0 mm 2 mps 655 mmHg 14%
    19:00 +24°C° 0 mm 2 mps 655 mmHg 15%
    20:00 +23°C° 0 mm 1 mps 655 mmHg 16%
    21:00 +22°C° 0 mm 1 mps 655 mmHg 16%
    22:00 +21°C° 0 mm 1 mps 655 mmHg 17%
    23:00 +21°C° 0 mm 1 mps 654 mmHg 17%
    Show more